DAL456 KBOS-KATL

Flight info

Callsign DAL456
Flight time 2h 17m
Altitude 36000
Route BLZZR6 BLZZR BAF Q448 PTW J48 MOL FLASK OZZZI2
Aircraft A321/M-SDE3FGHIRWY/LB1

Departure

Time 2026-05-06 01:09
Airport Boston Logan International Airport (KBOS)

Arrival

Time 2026-05-06 03:27
Airport Hartsfield Jackson Atlanta International Airport (KATL)
Time Latitude Longitude Altitude Speed Heading
2026-05-06 00:29 42.36213 -71.02144 26 ft 0 kts 174°
2026-05-06 00:49 42.36224 -71.02145 31 ft 4 kts 174°
2026-05-06 00:49 42.36247 -71.02149 28 ft 3 kts 175°
2026-05-06 00:50 42.36271 -71.02144 29 ft 4 kts 220°
2026-05-06 00:50 42.36286 -71.02116 29 ft 3 kts 252°
2026-05-06 00:50 42.36288 -71.02106 29 ft 0 kts 253°
2026-05-06 00:55 42.36284 -71.02125 27 ft 6 kts 252°
2026-05-06 00:56 42.36270 -71.02185 26 ft 10 kts 253°
2026-05-06 00:56 42.36227 -71.02255 28 ft 11 kts 204°
2026-05-06 00:56 42.36174 -71.02283 27 ft 4 kts 200°
2026-05-06 00:56 42.36149 -71.02297 27 ft 4 kts 205°
2026-05-06 00:57 42.36103 -71.02317 25 ft 9 kts 187°
2026-05-06 00:57 42.36076 -71.02311 29 ft 5 kts 159°
2026-05-06 00:57 42.36062 -71.02300 27 ft 0 kts 147°
2026-05-06 01:00 42.36057 -71.02296 25 ft 4 kts 147°
2026-05-06 01:00 42.36019 -71.02225 29 ft 11 kts 121°
2026-05-06 01:00 42.35966 -71.02106 27 ft 12 kts 121°
2026-05-06 01:01 42.35922 -71.02009 20 ft 12 kts 121°
2026-05-06 01:01 42.35875 -71.01901 30 ft 15 kts 118°
2026-05-06 01:01 42.35845 -71.01780 29 ft 15 kts 102°
2026-05-06 01:01 42.35825 -71.01653 27 ft 10 kts 102°
2026-05-06 01:02 42.35836 -71.01582 29 ft 7 kts 45°
2026-05-06 01:02 42.35918 -71.01537 27 ft 19 kts 20°
2026-05-06 01:02 42.36052 -71.01471 27 ft 20 kts 20°
2026-05-06 01:02 42.36179 -71.01410 29 ft 19 kts 20°
2026-05-06 01:03 42.36318 -71.01342 27 ft 22 kts 20°
2026-05-06 01:03 42.36455 -71.01277 28 ft 20 kts 19°
2026-05-06 01:03 42.36556 -71.01228 26 ft 12 kts 20°
2026-05-06 01:03 42.36633 -71.01191 27 ft 14 kts 19°
2026-05-06 01:04 42.36730 -71.01146 27 ft 13 kts 13°
2026-05-06 01:04 42.36806 -71.01171 27 ft 12 kts 322°
2026-05-06 01:04 42.36877 -71.01264 28 ft 19 kts 315°
2026-05-06 01:04 42.36930 -71.01321 28 ft 4 kts 358°
2026-05-06 01:05 42.36928 -71.01286 27 ft 1 kts 146°
2026-05-06 01:05 42.36896 -71.01272 30 ft 10 kts 152°
2026-05-06 01:05 42.36912 -71.01196 27 ft 10 kts 43°
2026-05-06 01:05 42.36967 -71.01131 27 ft 13 kts 38°
2026-05-06 01:06 42.37085 -71.01047 27 ft 22 kts 26°
2026-05-06 01:06 42.37198 -71.00973 28 ft 10 kts 26°
2026-05-06 01:06 42.37247 -71.00942 28 ft 7 kts 25°
2026-05-06 01:06 42.37333 -71.00892 28 ft 23 kts 19°
2026-05-06 01:07 42.37485 -71.00819 29 ft 23 kts 19°
2026-05-06 01:07 42.37624 -71.00751 28 ft 19 kts 20°
2026-05-06 01:07 42.37736 -71.00697 28 ft 11 kts 20°
2026-05-06 01:07 42.37806 -71.00663 28 ft 12 kts 23°
2026-05-06 01:08 42.37833 -71.00574 30 ft 10 kts 107°
2026-05-06 01:08 42.37808 -71.00488 27 ft 9 kts 124°
2026-05-06 01:08 42.37756 -71.00490 28 ft 8 kts 204°
2026-05-06 01:08 42.37707 -71.00515 28 ft 8 kts 200°
2026-05-06 01:09 42.37556 -71.00589 26 ft 53 kts 199°
2026-05-06 01:09 42.37009 -71.00851 27 ft 112 kts 200°
2026-05-06 01:09 42.36136 -71.01274 173 ft 143 kts 199°
2026-05-06 01:09 42.35243 -71.01687 877 ft 135 kts 202°
2026-05-06 01:10 42.34344 -71.02032 1548 ft 133 kts 197°
2026-05-06 01:10 42.33384 -71.01799 2141 ft 154 kts 168°
2026-05-06 01:10 42.32615 -71.00596 2637 ft 190 kts 123°
2026-05-06 01:10 42.32257 -70.98859 3185 ft 189 kts 117°
2026-05-06 01:11 42.31886 -70.97166 3519 ft 201 kts 117°
2026-05-06 01:11 42.31458 -70.95273 3779 ft 217 kts 111°
2026-05-06 01:11 42.31467 -70.93216 4365 ft 221 kts 78°
2026-05-06 01:11 42.31920 -70.91264 4981 ft 216 kts 73°
2026-05-06 01:12 42.32407 -70.89288 5318 ft 228 kts 74°
2026-05-06 01:12 42.32743 -70.87172 5694 ft 231 kts 89°
2026-05-06 01:12 42.32787 -70.85021 6215 ft 227 kts 96°
2026-05-06 01:12 42.32708 -70.82874 6609 ft 230 kts 101°
2026-05-06 01:13 42.32517 -70.80730 7071 ft 229 kts 105°
2026-05-06 01:13 42.32180 -70.78655 7591 ft 222 kts 114°
2026-05-06 01:13 42.31634 -70.76754 8007 ft 221 kts 124°
2026-05-06 01:13 42.30768 -70.75019 8283 ft 225 kts 141°
2026-05-06 01:14 42.28116 -70.72447 8795 ft 251 kts 163°
2026-05-06 01:14 42.26445 -70.71661 9278 ft 254 kts 175°
2026-05-06 01:14 42.24717 -70.71433 10023 ft 247 kts 188°
2026-05-06 01:15 42.23025 -70.71721 10679 ft 244 kts 198°
2026-05-06 01:15 42.21369 -70.72375 11178 ft 251 kts 205°
2026-05-06 01:15 42.19838 -70.73547 11425 ft 265 kts 228°
2026-05-06 01:15 42.18793 -70.75669 11646 ft 283 kts 245°
2026-05-06 01:16 42.18148 -70.78290 11794 ft 307 kts 257°
2026-05-06 01:16 42.17797 -70.81206 12106 ft 321 kts 259°
2026-05-06 01:16 42.17452 -70.83805 12627 ft 326 kts 258°
2026-05-06 01:16 42.17024 -70.86821 13295 ft 329 kts 257°
2026-05-06 01:17 42.16584 -70.89866 13947 ft 333 kts 258°
2026-05-06 01:17 42.16166 -70.92951 14531 ft 337 kts 262°
2026-05-06 01:17 42.16113 -70.96126 15132 ft 342 kts 272°
2026-05-06 01:17 42.16343 -70.99285 15736 ft 345 kts 273°
2026-05-06 01:18 42.16584 -71.02509 16340 ft 347 kts 273°
2026-05-06 01:18 42.16825 -71.05763 16944 ft 350 kts 273°
2026-05-06 01:18 42.17065 -71.09035 17539 ft 353 kts 273°
2026-05-06 01:18 42.17307 -71.12341 18128 ft 355 kts 273°
2026-05-06 01:19 42.17547 -71.15671 18634 ft 358 kts 273°
2026-05-06 01:19 42.17786 -71.19025 19130 ft 360 kts 273°
2026-05-06 01:19 42.18026 -71.22395 19622 ft 363 kts 273°
2026-05-06 01:19 42.18271 -71.25790 20121 ft 365 kts 273°
2026-05-06 01:20 42.18514 -71.29204 20607 ft 367 kts 274°
2026-05-06 01:20 42.18756 -71.32636 21082 ft 369 kts 274°
2026-05-06 01:20 42.18994 -71.36049 21563 ft 371 kts 274°
2026-05-06 01:20 42.19232 -71.39521 22031 ft 374 kts 274°
2026-05-06 01:21 42.19477 -71.43024 22520 ft 376 kts 274°
2026-05-06 01:21 42.19723 -71.46544 22968 ft 378 kts 274°
2026-05-06 01:21 42.19971 -71.50088 23427 ft 381 kts 274°
2026-05-06 01:21 42.20220 -71.53651 23804 ft 383 kts 274°
2026-05-06 01:22 42.20470 -71.57242 24164 ft 386 kts 274°
2026-05-06 01:22 42.20716 -71.60855 24524 ft 388 kts 274°
2026-05-06 01:22 42.20959 -71.64490 24891 ft 390 kts 274°
2026-05-06 01:22 42.21206 -71.68146 25252 ft 393 kts 274°
2026-05-06 01:23 42.21448 -71.71774 25599 ft 395 kts 275°
2026-05-06 01:23 42.21671 -71.75479 25949 ft 397 kts 271°
2026-05-06 01:23 42.21558 -71.79207 26283 ft 399 kts 266°
2026-05-06 01:23 42.21346 -71.82952 26623 ft 402 kts 266°
2026-05-06 01:24 42.21140 -71.86722 26956 ft 404 kts 266°
2026-05-06 01:24 42.20935 -71.90509 27272 ft 406 kts 266°
2026-05-06 01:24 42.20729 -71.94316 27626 ft 408 kts 266°
2026-05-06 01:24 42.20519 -71.98149 27963 ft 410 kts 266°
2026-05-06 01:25 42.20311 -72.01905 28276 ft 412 kts 266°
2026-05-06 01:25 42.20093 -72.05774 28598 ft 414 kts 266°
2026-05-06 01:25 42.19873 -72.09639 28913 ft 415 kts 266°
2026-05-06 01:25 42.19651 -72.13537 29211 ft 417 kts 266°
2026-05-06 01:26 42.19430 -72.17442 29504 ft 419 kts 266°
2026-05-06 01:26 42.19207 -72.21367 29777 ft 421 kts 266°
2026-05-06 01:26 42.18982 -72.25309 30052 ft 423 kts 266°
2026-05-06 01:26 42.18753 -72.29261 30410 ft 421 kts 266°
2026-05-06 01:27 42.18524 -72.33172 30918 ft 416 kts 266°
2026-05-06 01:27 42.18295 -72.37050 31397 ft 413 kts 266°
2026-05-06 01:27 42.18067 -72.40899 31823 ft 411 kts 266°
2026-05-06 01:27 42.17842 -72.44673 32256 ft 408 kts 266°
2026-05-06 01:28 42.17612 -72.48478 32686 ft 406 kts 266°
2026-05-06 01:28 42.17383 -72.52259 33105 ft 404 kts 267°
2026-05-06 01:28 42.17153 -72.56031 33522 ft 402 kts 267°
2026-05-06 01:28 42.16924 -72.59785 33828 ft 402 kts 267°
2026-05-06 01:29 42.16413 -72.67234 33882 ft 397 kts 261°
2026-05-06 01:29 42.14509 -72.74223 33873 ft 403 kts 243°
2026-05-06 01:30 42.11141 -72.80275 33869 ft 408 kts 236°
2026-05-06 01:30 42.07619 -72.86285 33870 ft 409 kts 236°
2026-05-06 01:31 42.04092 -72.92303 33872 ft 409 kts 236°
2026-05-06 01:31 42.00573 -72.98308 33886 ft 407 kts 236°
2026-05-06 01:32 41.97099 -73.04209 33886 ft 405 kts 233°
2026-05-06 01:32 41.92768 -73.09182 33878 ft 418 kts 217°
2026-05-06 01:33 41.87826 -73.13310 33894 ft 419 kts 217°
2026-05-06 01:33 41.82890 -73.17458 33906 ft 419 kts 217°
2026-05-06 01:34 41.77952 -73.21595 33911 ft 419 kts 217°
2026-05-06 01:34 41.73020 -73.25712 33895 ft 421 kts 217°
2026-05-06 01:35 41.68048 -73.29869 33895 ft 421 kts 218°
2026-05-06 01:35 41.63728 -73.34929 33908 ft 409 kts 233°
2026-05-06 01:36 41.60019 -73.40688 33881 ft 409 kts 233°
2026-05-06 01:36 41.56279 -73.46421 33884 ft 409 kts 233°
2026-05-06 01:37 41.52535 -73.52140 33858 ft 409 kts 233°
2026-05-06 01:37 41.48826 -73.57817 33860 ft 409 kts 233°
2026-05-06 01:38 41.45090 -73.63536 33900 ft 409 kts 233°
2026-05-06 01:38 41.41347 -73.69242 33892 ft 410 kts 232°
2026-05-06 01:39 41.37591 -73.74958 33884 ft 410 kts 232°
2026-05-06 01:39 41.33859 -73.80632 33871 ft 410 kts 232°
2026-05-06 01:40 41.30054 -73.86284 33871 ft 410 kts 231°
2026-05-06 01:40 41.26221 -73.91906 33848 ft 411 kts 231°
2026-05-06 01:41 41.22370 -73.97556 33871 ft 413 kts 231°
2026-05-06 01:41 41.18515 -74.03221 33869 ft 412 kts 231°
2026-05-06 01:42 41.14680 -74.08852 33868 ft 411 kts 231°
2026-05-06 01:42 41.10978 -74.14551 33872 ft 410 kts 234°
2026-05-06 01:43 41.07411 -74.20445 33881 ft 411 kts 234°
2026-05-06 01:43 41.03828 -74.26376 33884 ft 412 kts 234°
2026-05-06 01:44 41.00208 -74.32250 33886 ft 412 kts 234°
2026-05-06 01:44 40.96589 -74.38069 33885 ft 412 kts 233°
2026-05-06 01:45 40.92949 -74.43908 33885 ft 411 kts 233°
2026-05-06 01:45 40.89308 -74.49751 33895 ft 412 kts 234°
2026-05-06 01:46 40.85655 -74.55595 33893 ft 412 kts 234°
2026-05-06 01:46 40.82024 -74.61397 33890 ft 412 kts 234°
2026-05-06 01:47 40.78371 -74.67237 33883 ft 412 kts 234°
2026-05-06 01:47 40.74718 -74.73066 33854 ft 412 kts 234°
2026-05-06 01:48 40.71058 -74.78884 33875 ft 412 kts 234°
2026-05-06 01:48 40.67425 -74.84656 33875 ft 412 kts 234°
2026-05-06 01:49 40.63760 -74.90467 33873 ft 412 kts 234°
2026-05-06 01:49 40.60090 -74.96260 33872 ft 412 kts 234°
2026-05-06 01:50 40.56419 -75.02055 33882 ft 412 kts 234°
2026-05-06 01:50 40.52781 -75.07816 33887 ft 412 kts 234°
2026-05-06 01:51 40.49286 -75.13380 33909 ft 411 kts 234°
2026-05-06 01:51 40.45638 -75.19180 33922 ft 412 kts 234°
2026-05-06 01:52 40.41978 -75.24965 33927 ft 412 kts 234°
2026-05-06 01:52 40.38316 -75.30740 33923 ft 412 kts 234°
2026-05-06 01:53 40.34646 -75.36527 33927 ft 413 kts 234°
2026-05-06 01:53 40.30993 -75.42270 33915 ft 413 kts 234°
2026-05-06 01:54 40.27306 -75.48057 33915 ft 414 kts 233°
2026-05-06 01:54 40.23611 -75.53837 33918 ft 414 kts 233°
2026-05-06 01:55 40.20259 -75.59921 33914 ft 412 kts 240°
2026-05-06 01:55 40.17138 -75.66153 33914 ft 412 kts 240°
2026-05-06 01:56 40.13977 -75.72419 33910 ft 413 kts 239°
2026-05-06 01:56 40.10816 -75.78682 33908 ft 413 kts 239°
2026-05-06 01:57 40.07645 -75.84965 33923 ft 416 kts 239°
2026-05-06 01:57 40.04451 -75.91270 33907 ft 416 kts 239°
2026-05-06 01:58 40.01274 -75.97536 33881 ft 417 kts 239°
2026-05-06 01:58 39.98066 -76.03845 33901 ft 417 kts 239°
2026-05-06 01:59 39.94849 -76.10147 33876 ft 418 kts 239°
2026-05-06 01:59 39.91624 -76.16452 33883 ft 420 kts 239°
2026-05-06 02:00 39.88401 -76.22767 33880 ft 422 kts 239°
2026-05-06 02:00 39.85146 -76.29132 33881 ft 423 kts 239°
2026-05-06 02:01 39.81881 -76.35493 33884 ft 423 kts 239°
2026-05-06 02:01 39.78610 -76.41844 33883 ft 423 kts 239°
2026-05-06 02:02 39.75336 -76.48189 33888 ft 423 kts 239°
2026-05-06 02:02 39.72084 -76.54480 33884 ft 421 kts 240°
2026-05-06 02:03 39.68821 -76.60780 33873 ft 421 kts 240°
2026-05-06 02:03 39.65547 -76.67091 33898 ft 422 kts 240°
2026-05-06 02:04 39.62267 -76.73412 33902 ft 422 kts 240°
2026-05-06 02:04 39.58981 -76.79722 33890 ft 422 kts 240°
2026-05-06 02:05 39.55708 -76.85982 33901 ft 422 kts 240°
2026-05-06 02:05 39.52413 -76.92273 33923 ft 422 kts 241°
2026-05-06 02:06 39.48865 -76.98363 33927 ft 430 kts 231°
2026-05-06 02:06 39.44242 -77.03398 33927 ft 436 kts 225°
2026-05-06 02:07 39.39539 -77.08332 33926 ft 436 kts 225°
2026-05-06 02:07 39.34869 -77.13244 33943 ft 436 kts 225°
2026-05-06 02:08 39.30165 -77.18182 33933 ft 437 kts 225°
2026-05-06 02:08 39.25441 -77.23134 33951 ft 438 kts 226°
2026-05-06 02:09 39.20698 -77.28095 33942 ft 439 kts 227°
2026-05-06 02:09 39.15941 -77.33047 33942 ft 440 kts 227°
2026-05-06 02:10 39.11222 -77.37968 33893 ft 440 kts 227°
2026-05-06 02:10 39.06451 -77.42944 33934 ft 442 kts 227°
2026-05-06 02:11 39.01666 -77.47905 33926 ft 442 kts 227°
2026-05-06 02:11 38.96870 -77.52862 33923 ft 442 kts 227°
2026-05-06 02:12 38.92108 -77.57779 33919 ft 442 kts 227°
2026-05-06 02:12 38.87315 -77.62720 33918 ft 440 kts 228°
2026-05-06 02:13 38.82556 -77.67630 33938 ft 439 kts 228°
2026-05-06 02:13 38.77796 -77.72531 33939 ft 439 kts 228°
2026-05-06 02:14 38.73030 -77.77428 33938 ft 439 kts 228°
2026-05-06 02:14 38.68288 -77.82284 33912 ft 440 kts 228°
2026-05-06 02:15 38.63707 -77.87399 33958 ft 429 kts 237°
2026-05-06 02:15 38.60121 -77.93373 33960 ft 423 kts 242°
2026-05-06 02:16 38.56598 -77.99385 33956 ft 422 kts 242°
2026-05-06 02:16 38.53102 -78.05318 33949 ft 421 kts 242°
2026-05-06 02:17 38.49580 -78.11293 33943 ft 421 kts 242°
2026-05-06 02:17 38.46047 -78.17268 33936 ft 422 kts 242°
2026-05-06 02:18 38.42510 -78.23243 33942 ft 422 kts 242°
2026-05-06 02:18 38.38997 -78.29174 33942 ft 422 kts 242°
2026-05-06 02:19 38.35468 -78.35138 33945 ft 422 kts 242°
2026-05-06 02:19 38.31927 -78.41096 33943 ft 422 kts 242°
2026-05-06 02:20 38.26596 -78.50032 33956 ft 423 kts 242°
2026-05-06 02:21 38.23062 -78.55944 33956 ft 423 kts 242°
2026-05-06 02:21 38.19488 -78.61910 33956 ft 424 kts 242°
2026-05-06 02:22 38.15919 -78.67856 33953 ft 423 kts 242°
2026-05-06 02:22 38.12364 -78.73765 33944 ft 419 kts 242°
2026-05-06 02:23 38.08856 -78.79608 33971 ft 419 kts 242°
2026-05-06 02:23 38.05317 -78.85488 33964 ft 420 kts 242°
2026-05-06 02:24 38.01761 -78.91368 33956 ft 420 kts 242°
2026-05-06 02:24 37.98209 -78.97241 33950 ft 420 kts 242°
2026-05-06 02:25 37.94692 -79.03051 33945 ft 420 kts 242°
2026-05-06 02:25 37.91139 -79.08911 33961 ft 419 kts 242°
2026-05-06 02:26 37.87389 -79.14589 33977 ft 422 kts 239°
2026-05-06 02:26 37.83417 -79.20086 33994 ft 424 kts 237°
2026-05-06 02:27 37.79394 -79.25552 34007 ft 424 kts 237°
2026-05-06 02:27 37.75432 -79.30994 34015 ft 424 kts 238°
2026-05-06 02:28 37.71464 -79.36496 34009 ft 423 kts 238°
2026-05-06 02:28 37.67503 -79.42001 34001 ft 424 kts 238°
2026-05-06 02:29 37.63541 -79.47488 34010 ft 422 kts 238°
2026-05-06 02:29 37.59608 -79.52913 33978 ft 422 kts 238°
2026-05-06 02:30 37.55643 -79.58361 33969 ft 421 kts 238°
2026-05-06 02:30 37.51683 -79.63800 33954 ft 422 kts 238°
2026-05-06 02:31 37.47710 -79.69258 33979 ft 422 kts 237°
2026-05-06 02:31 37.43765 -79.74658 33996 ft 422 kts 238°
2026-05-06 02:32 37.39792 -79.80091 34012 ft 422 kts 237°
2026-05-06 02:32 37.35831 -79.85498 34020 ft 419 kts 237°
2026-05-06 02:33 37.31878 -79.90879 34011 ft 419 kts 238°
2026-05-06 02:33 37.30571 -79.92661 34011 ft 419 kts 238°
2026-05-06 02:34 37.23998 -80.01619 33989 ft 421 kts 237°
2026-05-06 02:34 37.20017 -80.07016 34003 ft 422 kts 237°
2026-05-06 02:35 37.16027 -80.12401 34013 ft 421 kts 237°
2026-05-06 02:35 37.12066 -80.17753 34024 ft 421 kts 237°
2026-05-06 02:36 37.08093 -80.23115 34025 ft 419 kts 237°
2026-05-06 02:36 37.04115 -80.28472 34024 ft 421 kts 237°
2026-05-06 02:37 37.00114 -80.33825 34013 ft 421 kts 236°
2026-05-06 02:37 36.96095 -80.39104 34010 ft 423 kts 236°
2026-05-06 02:38 36.91940 -80.44322 33996 ft 424 kts 234°
2026-05-06 02:38 36.87777 -80.49520 33979 ft 423 kts 235°
2026-05-06 02:39 36.83649 -80.54763 33991 ft 424 kts 235°
2026-05-06 02:39 36.79560 -80.59965 33976 ft 422 kts 235°
2026-05-06 02:40 36.75446 -80.65191 34035 ft 422 kts 235°
2026-05-06 02:40 36.71334 -80.70412 34043 ft 422 kts 235°
2026-05-06 02:41 36.67224 -80.75631 34044 ft 422 kts 235°
2026-05-06 02:41 36.63142 -80.80815 33991 ft 422 kts 235°
2026-05-06 02:42 36.59013 -80.86040 34015 ft 424 kts 235°
2026-05-06 02:42 36.54860 -80.91267 33964 ft 425 kts 235°
2026-05-06 02:43 36.50717 -80.96476 33989 ft 424 kts 235°
2026-05-06 02:43 36.46598 -81.01653 34012 ft 424 kts 235°
2026-05-06 02:44 36.42461 -81.06861 34035 ft 424 kts 235°
2026-05-06 02:44 36.38300 -81.12076 34051 ft 426 kts 234°
2026-05-06 02:45 36.34124 -81.17287 34057 ft 426 kts 234°
2026-05-06 02:45 36.29952 -81.22500 34056 ft 425 kts 235°
2026-05-06 02:46 36.25821 -81.27671 34052 ft 425 kts 235°
2026-05-06 02:46 36.21694 -81.32808 34037 ft 423 kts 234°
2026-05-06 02:47 36.17714 -81.37738 34003 ft 422 kts 235°
2026-05-06 02:47 36.13577 -81.42916 33997 ft 423 kts 235°
2026-05-06 02:48 36.09462 -81.48053 33981 ft 423 kts 235°
2026-05-06 02:48 36.05296 -81.53209 33975 ft 424 kts 235°
2026-05-06 02:49 36.01127 -81.58359 33964 ft 424 kts 235°
2026-05-06 02:49 35.96952 -81.63509 33968 ft 424 kts 235°
2026-05-06 02:50 35.92811 -81.68620 33976 ft 423 kts 236°
2026-05-06 02:50 35.88659 -81.73744 33969 ft 422 kts 236°
2026-05-06 02:51 35.84498 -81.78853 34054 ft 422 kts 236°
2026-05-06 02:51 35.80338 -81.83950 34028 ft 422 kts 236°
2026-05-06 02:52 35.76184 -81.88994 34027 ft 423 kts 235°
2026-05-06 02:52 35.71970 -81.94040 34001 ft 423 kts 235°
2026-05-06 02:53 35.67741 -81.99078 33999 ft 423 kts 235°
2026-05-06 02:53 35.63510 -82.04115 34021 ft 423 kts 235°
2026-05-06 02:54 35.59309 -82.09116 34011 ft 423 kts 235°
2026-05-06 02:54 35.55082 -82.14153 34027 ft 424 kts 235°
2026-05-06 02:55 35.50844 -82.19194 34006 ft 423 kts 235°
2026-05-06 02:55 35.46604 -82.24228 34017 ft 426 kts 235°
2026-05-06 02:56 35.42352 -82.29268 34008 ft 425 kts 235°
2026-05-06 02:56 35.38206 -82.34331 33758 ft 420 kts 236°
2026-05-06 02:56 35.36169 -82.36882 33485 ft 418 kts 236°
2026-05-06 02:57 35.34139 -82.39438 33222 ft 418 kts 236°
2026-05-06 02:57 35.32111 -82.41988 32981 ft 417 kts 236°
2026-05-06 02:57 35.30084 -82.44523 32729 ft 416 kts 236°
2026-05-06 02:57 35.28057 -82.47041 32477 ft 415 kts 235°
2026-05-06 02:58 35.26033 -82.49545 32192 ft 414 kts 235°
2026-05-06 02:58 35.24032 -82.52016 31977 ft 414 kts 234°
2026-05-06 02:58 35.22008 -82.54509 31724 ft 412 kts 234°
2026-05-06 02:58 35.19993 -82.56991 31481 ft 411 kts 234°
2026-05-06 02:59 35.17980 -82.59473 31236 ft 410 kts 234°
2026-05-06 02:59 35.16259 -82.61598 31027 ft 408 kts 234°
2026-05-06 02:59 35.14255 -82.64049 30773 ft 408 kts 233°
2026-05-06 02:59 35.12228 -82.66475 30548 ft 407 kts 232°
2026-05-06 03:00 35.10198 -82.68869 30312 ft 406 kts 232°
2026-05-06 03:00 35.08169 -82.71251 30078 ft 404 kts 231°
2026-05-06 03:00 35.06175 -82.73595 29811 ft 402 kts 231°
2026-05-06 03:00 35.04171 -82.75957 29540 ft 399 kts 231°
2026-05-06 03:01 35.02183 -82.78307 29239 ft 399 kts 231°
2026-05-06 03:01 35.00188 -82.80669 28967 ft 398 kts 231°
2026-05-06 03:01 34.98205 -82.83020 28706 ft 397 kts 231°
2026-05-06 03:01 34.96230 -82.85359 28443 ft 395 kts 231°
2026-05-06 03:02 34.94266 -82.87685 28175 ft 393 kts 231°
2026-05-06 03:02 34.92304 -82.89999 27924 ft 392 kts 230°
2026-05-06 03:02 34.90363 -82.92264 27675 ft 390 kts 230°
2026-05-06 03:02 34.88405 -82.94535 27418 ft 388 kts 230°
2026-05-06 03:03 34.86448 -82.96795 27163 ft 387 kts 230°
2026-05-06 03:03 34.84497 -82.99040 26919 ft 385 kts 230°
2026-05-06 03:03 34.82552 -83.01277 26671 ft 383 kts 230°
2026-05-06 03:03 34.80622 -83.03501 26428 ft 382 kts 229°
2026-05-06 03:04 34.78694 -83.05719 26169 ft 380 kts 230°
2026-05-06 03:04 34.76780 -83.07922 25935 ft 379 kts 229°
2026-05-06 03:04 34.74895 -83.10095 25694 ft 377 kts 229°
2026-05-06 03:04 34.72999 -83.12285 25469 ft 375 kts 229°
2026-05-06 03:05 34.71112 -83.14468 25236 ft 374 kts 229°
2026-05-06 03:05 34.69231 -83.16640 25006 ft 372 kts 229°
2026-05-06 03:05 34.67354 -83.18801 24782 ft 371 kts 229°
2026-05-06 03:05 34.65479 -83.20953 24556 ft 370 kts 229°
2026-05-06 03:06 34.63612 -83.23093 24337 ft 369 kts 229°
2026-05-06 03:06 34.61748 -83.25231 24107 ft 368 kts 229°
2026-05-06 03:06 34.59904 -83.27344 23883 ft 366 kts 229°
2026-05-06 03:06 34.58052 -83.29467 23663 ft 365 kts 229°
2026-05-06 03:07 34.56210 -83.31579 23407 ft 364 kts 229°
2026-05-06 03:07 34.54398 -83.33659 23120 ft 363 kts 229°
2026-05-06 03:07 34.52570 -83.35763 22838 ft 362 kts 229°
2026-05-06 03:07 34.50748 -83.37861 22605 ft 358 kts 229°
2026-05-06 03:08 34.48958 -83.39919 22191 ft 352 kts 229°
2026-05-06 03:08 34.47190 -83.41949 21747 ft 348 kts 229°
2026-05-06 03:08 34.45459 -83.43935 21333 ft 343 kts 229°
2026-05-06 03:08 34.43733 -83.45918 20882 ft 340 kts 229°
2026-05-06 03:09 34.42023 -83.47879 20454 ft 337 kts 229°
2026-05-06 03:09 34.40325 -83.49819 20031 ft 335 kts 229°
2026-05-06 03:09 34.38634 -83.51752 19600 ft 333 kts 229°
2026-05-06 03:09 34.36961 -83.53667 19181 ft 331 kts 230°
2026-05-06 03:10 34.35290 -83.55584 18754 ft 329 kts 229°
2026-05-06 03:10 34.33658 -83.57454 18335 ft 327 kts 229°
2026-05-06 03:10 34.32009 -83.59337 17878 ft 324 kts 229°
2026-05-06 03:10 34.30427 -83.61143 17460 ft 321 kts 229°
2026-05-06 03:11 34.28812 -83.62983 17047 ft 318 kts 229°
2026-05-06 03:11 34.27184 -83.64777 16642 ft 316 kts 227°
2026-05-06 03:11 34.25545 -83.66527 16247 ft 314 kts 226°
2026-05-06 03:11 34.23906 -83.68256 15850 ft 311 kts 226°
2026-05-06 03:12 34.22277 -83.69966 15487 ft 310 kts 226°
2026-05-06 03:12 34.20680 -83.71647 15104 ft 308 kts 226°
2026-05-06 03:12 34.19070 -83.73347 14718 ft 306 kts 226°
2026-05-06 03:12 34.17471 -83.75042 14334 ft 305 kts 226°
2026-05-06 03:13 34.15883 -83.76730 13942 ft 304 kts 226°
2026-05-06 03:13 34.14297 -83.78418 13523 ft 303 kts 225°
2026-05-06 03:13 34.12720 -83.80095 13129 ft 301 kts 225°
2026-05-06 03:13 34.11153 -83.81755 12736 ft 299 kts 225°
2026-05-06 03:14 34.09600 -83.83398 12352 ft 296 kts 225°
2026-05-06 03:14 34.08079 -83.85017 11971 ft 294 kts 225°
2026-05-06 03:14 34.06556 -83.86654 11579 ft 292 kts 225°
2026-05-06 03:14 34.05045 -83.88280 11189 ft 290 kts 225°
2026-05-06 03:15 34.03540 -83.89897 10798 ft 289 kts 225°
2026-05-06 03:15 34.02041 -83.91500 10414 ft 287 kts 225°
2026-05-06 03:15 34.00570 -83.93075 10231 ft 278 kts 225°
2026-05-06 03:15 33.99139 -83.94608 9970 ft 273 kts 224°
2026-05-06 03:16 33.97596 -83.95908 9827 ft 273 kts 210°
2026-05-06 03:16 33.95777 -83.96633 9660 ft 279 kts 194°
2026-05-06 03:16 33.93851 -83.96715 9320 ft 283 kts 182°
2026-05-06 03:16 33.91890 -83.96616 8943 ft 281 kts 182°
2026-05-06 03:17 33.89958 -83.96522 8855 ft 278 kts 183°
2026-05-06 03:17 33.88019 -83.96435 8759 ft 279 kts 183°
2026-05-06 03:17 33.86084 -83.96354 8659 ft 278 kts 183°
2026-05-06 03:17 33.84151 -83.96274 8541 ft 277 kts 183°
2026-05-06 03:18 33.82228 -83.96194 8416 ft 276 kts 183°
2026-05-06 03:18 33.80331 -83.96115 8303 ft 276 kts 183°
2026-05-06 03:18 33.78385 -83.96038 8201 ft 277 kts 183°
2026-05-06 03:18 33.76492 -83.95980 8083 ft 274 kts 187°
2026-05-06 03:19 33.74634 -83.96330 7924 ft 269 kts 201°
2026-05-06 03:19 33.72909 -83.97139 7628 ft 264 kts 206°
2026-05-06 03:19 33.71216 -83.97986 7359 ft 263 kts 206°
2026-05-06 03:19 33.69535 -83.98824 7097 ft 261 kts 206°
2026-05-06 03:20 33.66346 -84.00770 6580 ft 254 kts 225°
2026-05-06 03:20 33.65335 -84.02416 6313 ft 246 kts 245°
2026-05-06 03:20 33.64908 -84.04374 6058 ft 242 kts 263°
2026-05-06 03:21 33.64877 -84.06377 5811 ft 237 kts 268°
2026-05-06 03:21 33.64903 -84.08331 5573 ft 232 kts 267°
2026-05-06 03:21 33.64915 -84.10246 5331 ft 227 kts 266°
2026-05-06 03:21 33.64919 -84.12121 5111 ft 222 kts 266°
2026-05-06 03:22 33.64924 -84.13944 4909 ft 214 kts 266°
2026-05-06 03:22 33.64928 -84.15707 4647 ft 208 kts 266°
2026-05-06 03:22 33.64931 -84.17399 4416 ft 202 kts 265°
2026-05-06 03:22 33.64934 -84.19061 4206 ft 197 kts 265°
2026-05-06 03:23 33.64936 -84.20699 3994 ft 196 kts 265°
2026-05-06 03:23 33.64939 -84.22322 3879 ft 195 kts 265°
2026-05-06 03:23 33.64941 -84.23949 3701 ft 193 kts 265°
2026-05-06 03:23 33.64945 -84.25518 3485 ft 182 kts 264°
2026-05-06 03:24 33.64948 -84.26997 3248 ft 170 kts 264°
2026-05-06 03:24 33.64951 -84.28342 3030 ft 156 kts 263°
2026-05-06 03:24 33.64961 -84.29621 2805 ft 152 kts 262°
2026-05-06 03:24 33.64969 -84.30854 2646 ft 143 kts 261°
2026-05-06 03:25 33.64967 -84.32002 2474 ft 139 kts 262°
2026-05-06 03:25 33.64966 -84.33152 2297 ft 138 kts 262°
2026-05-06 03:25 33.64972 -84.34302 2132 ft 138 kts 262°
2026-05-06 03:25 33.64971 -84.35454 1959 ft 138 kts 261°
2026-05-06 03:26 33.64963 -84.36600 1774 ft 137 kts 262°
2026-05-06 03:26 33.64962 -84.37759 1601 ft 140 kts 266°
2026-05-06 03:26 33.64969 -84.38936 1396 ft 142 kts 267°
2026-05-06 03:26 33.64958 -84.40104 1231 ft 142 kts 266°
2026-05-06 03:27 33.64953 -84.41291 1060 ft 142 kts 268°
2026-05-06 03:27 33.64952 -84.42378 1036 ft 105 kts 270°
2026-05-06 03:27 33.64953 -84.42906 1035 ft 34 kts 270°
2026-05-06 03:27 33.64941 -84.43118 1036 ft 22 kts 257°
2026-05-06 03:28 33.64893 -84.43267 1036 ft 13 kts 242°
2026-05-06 03:28 33.64822 -84.43304 1036 ft 11 kts 159°
2026-05-06 03:28 33.64791 -84.43230 1036 ft 10 kts 91°
2026-05-06 03:28 33.64763 -84.43148 1036 ft 14 kts 145°
2026-05-06 03:29 33.64672 -84.43149 1037 ft 12 kts 207°
2026-05-06 03:29 33.64622 -84.43227 1037 ft 12 kts 239°
2026-05-06 03:29 33.64574 -84.43326 1036 ft 18 kts 241°
2026-05-06 03:29 33.64514 -84.43420 1036 ft 12 kts 208°
2026-05-06 03:30 33.64447 -84.43415 1036 ft 12 kts 146°
2026-05-06 03:30 33.64380 -84.43394 1036 ft 10 kts 180°
2026-05-06 03:30 33.64311 -84.43390 1036 ft 9 kts 160°
2026-05-06 03:30 33.64289 -84.43342 1036 ft 4 kts 94°
2026-05-06 03:31 33.64289 -84.43325 1036 ft 1 kts 91°
2026-05-06 03:31 33.64289 -84.43323 1036 ft 0 kts 91°